location,latitude,longitude,year,date,tidal_ht,rainfall,sal,temp,temp_tidbit,wind_stress_alongshore,wind_stress_cross_shore,wave_ht_daily_avg,fluor,chl_a
unitless,degrees_north,degrees_east,unitless,unitless,meters (m),inches,PSU,degrees Celsius,degrees Celsius,dynes,dynes,meters (m),amps,milligrams per cubic meter (mg/m3)
OIMB_Pier,43.3496333,-124.3299167,2014,2014-01-01,2.86,0.0,33.7,8.4,NaN,1.181038489,-0.001900984,1.9224,NaN,7.6
OIMB_Pier,43.3496333,-124.3299167,2014,2014-01-02,2.85,0.0,33.7,8.4,NaN,0.354908734,-0.050326537,5.2304,NaN,8.8
OIMB_Pier,43.3496333,-124.3299167,2014,2014-01-03,2.75,0.02,33.7,8.3,NaN,1.348882253,0.078866801,2.2532,NaN,9.2
OIMB_Pier,43.3496333,-124.3299167,2014,2014-01-04,2.58,0.0,33.5,8.3,NaN,4.153157022,0.704353299,2.8132,NaN,8.0
OIMB_Pier,43.3496333,-124.3299167,2014,2014-01-05,2.34,0.0,33.3,8.2,NaN,0.962397133,0.520355332,1.4264,NaN,7.2
OIMB_Pier,43.3496333,-124.3299167,2014,2014-01-06,2.46,0.0,34.3,7.0,NaN,-0.848246417,-0.211256141,1.1508,NaN,7.4
OIMB_Pier,43.3496333,-124.3299167,2014,2014-01-07,2.45,0.07,33.8,8.0,NaN,-1.645827008,0.091429298,1.388,NaN,7.7
OIMB_Pier,43.3496333,-124.3299167,2014,2014-01-08,2.42,0.31,33.4,8.8,NaN,-1.960399076,-0.394611608,1.8444,NaN,8.0
OIMB_Pier,43.3496333,-124.3299167,2014,2014-01-09,2.4,0.3,33.7,8.6,NaN,-1.197160927,-0.564917082,2.746,NaN,7.7
OIMB_Pier,43.3496333,-124.3299167,2014,2014-01-10,2.39,0.3,33.2,8.7,NaN,-1.992175747,-0.17734767,3.7708,NaN,7.9
OIMB_Pier,43.3496333,-124.3299167,2014,2014-01-11,2.4,0.68,32.6,10.2,NaN,-3.619194256,-1.204601271,7.9012,NaN,7.1
OIMB_Pier,43.3496333,-124.3299167,2014,2014-01-12,2.48,0.49,32.7,9.5,NaN,-0.316237641,-0.922350091,13.7856,NaN,8.2
OIMB_Pier,43.3496333,-124.3299167,2014,2014-01-13,2.45,0.11,32.5,9.9,NaN,0.656093188,-0.044366155,3.4396,NaN,8.1
OIMB_Pier,43.3496333,-124.3299167,2014,2014-01-14,2.48,0.0,32.3,9.9,NaN,1.941225412,0.071875712,7.2208,NaN,0.7
OIMB_Pier,43.3496333,-124.3299167,2014,2014-01-15,2.5,0.0,31.9,10.6,NaN,1.768938674,-0.107927539,2.7692,NaN,0.7
OIMB_Pier,43.3496333,-124.3299167,2014,2014-01-16,2.49,0.0,32.4,10.0,NaN,0.774618153,0.085121479,2.0984,NaN,0.9
OIMB_Pier,43.3496333,-124.3299167,2014,2014-01-17,2.45,0.0,32.7,9.7,NaN,-0.167823845,0.056343544,1.424,NaN,1.0
OIMB_Pier,43.3496333,-124.3299167,2014,2014-01-18,2.18,0.0,32.6,9.2,NaN,0.166228507,-0.185365444,1.9552,NaN,1.0
OIMB_Pier,43.3496333,-124.3299167,2014,2014-01-19,2.08,0.0,32.4,9.3,NaN,0.915068159,0.008909093,2.8928,NaN,0.9
OIMB_Pier,43.3496333,-124.3299167,2014,2014-01-20,2.14,0.0,32.8,9.5,NaN,0.362977271,0.085661855,2.822,NaN,2.1
OIMB_Pier,43.3496333,-124.3299167,2014,2014-01-21,1.98,0.0,32.8,9.4,NaN,-0.6275133,-0.214880534,3.6576,NaN,1.4
OIMB_Pier,43.3496333,-124.3299167,2014,2014-01-22,2.26,0.0,32.7,8.1,NaN,1.644248448,0.004598484,3.2204,NaN,2.0
OIMB_Pier,43.3496333,-124.3299167,2014,2014-01-23,2.3,0.0,31.7,7.9,NaN,3.147690748,0.552818758,2.8236,NaN,2.1
OIMB_Pier,43.3496333,-124.3299167,2014,2014-01-24,2.3,0.0,33.3,8.1,NaN,0.490850312,0.550705308,14.694,NaN,1.0
OIMB_Pier,43.3496333,-124.3299167,2014,2014-01-25,2.41,0.0,33.0,8.2,NaN,-0.17556637,0.065012705,2.4564,NaN,1.9
OIMB_Pier,43.3496333,-124.3299167,2014,2014-01-26,2.5,0.0,33.0,9.5,NaN,0.262711939,-0.238976471,1.8416,NaN,2.4
OIMB_Pier,43.3496333,-124.3299167,2014,2014-01-27,2.52,0.0,32.8,9.3,NaN,-0.46366128,-0.115683989,2.0508,NaN,1.2
OIMB_Pier,43.3496333,-124.3299167,2014,2014-01-28,2.72,0.05,33.0,9.9,NaN,-1.103461741,-0.007173647,3.1368,NaN,1.4
OIMB_Pier,43.3496333,-124.3299167,2014,2014-01-29,2.73,1.0,32.8,9.7,NaN,-1.157539103,-0.616893689,3.0652,NaN,5.1
OIMB_Pier,43.3496333,-124.3299167,2014,2014-01-30,2.78,0.18,32.3,10.9,NaN,0.448252551,-0.178367892,3.0552,NaN,5.9
OIMB_Pier,43.3496333,-124.3299167,2014,2014-01-31,2.84,0.21,32.9,9.5,NaN,0.373227888,-0.219514793,2.2872,NaN,2.1
OIMB_Pier,43.3496333,-124.3299167,2014,2014-02-01,2.68,0.22,33.2,9.9,NaN,-0.463746497,-0.029633893,1.776,NaN,1.8
OIMB_Pier,43.3496333,-124.3299167,2014,2014-02-02,2.58,0.0,33.3,7.4,NaN,0.230744096,0.228920464,5.8376,NaN,1.6
OIMB_Pier,43.3496333,-124.3299167,2014,2014-02-03,2.6,0.05,33.4,7.4,NaN,1.090476283,-0.400974218,2.0452,NaN,NaN
OIMB_Pier,43.3496333,-124.3299167,2014,2014-02-04,2.37,0.07,33.2,7.3,NaN,0.21755322,-0.050537289,1.6156,NaN,1.5
OIMB_Pier,43.3496333,-124.3299167,2014,2014-02-05,2.46,0.0,33.3,6.9,NaN,0.083270369,0.066375736,1.0108,NaN,NaN
OIMB_Pier,43.3496333,-124.3299167,2014,2014-02-06,2.38,0.02,33.4,5.8,NaN,-0.940261,-0.388278834,12.9296,NaN,2.0
OIMB_Pier,43.3496333,-124.3299167,2014,2014-02-07,2.3,0.45,32.8,8.3,NaN,-2.514064649,-1.16785592,10.4068,NaN,NaN
OIMB_Pier,43.3496333,-124.3299167,2014,2014-02-08,2.24,1.78,32.0,9.2,NaN,-2.56716746,-0.68850794,6.8384,NaN,NaN
OIMB_Pier,43.3496333,-124.3299167,2014,2014-02-09,2.27,0.78,32.0,9.7,NaN,-0.860994016,-0.322055215,2.8396,NaN,NaN
OIMB_Pier,43.3496333,-124.3299167,2014,2014-02-10,2.29,0.04,32.1,9.5,NaN,-0.806852561,-0.163043896,1.8936,NaN,NaN
OIMB_Pier,43.3496333,-124.3299167,2014,2014-02-11,2.33,0.07,30.4,10.1,NaN,-1.829641217,-0.171526125,1.782,NaN,NaN
OIMB_Pier,43.3496333,-124.3299167,2014,2014-02-12,2.37,1.35,31.4,10.1,NaN,-4.187289491,-0.677127572,3.9908,NaN,NaN
OIMB_Pier,43.3496333,-124.3299167,2014,2014-02-13,2.4,0.45,31.4,10.5,NaN,-0.768541904,-0.207611548,2.7616,NaN,2.2
OIMB_Pier,43.3496333,-124.3299167,2014,2014-02-14,2.4,1.47,31.0,10.3,NaN,-1.769757536,-0.691557501,2.78,NaN,NaN
OIMB_Pier,43.3496333,-124.3299167,2014,2014-02-15,2.38,1.12,31.1,10.3,NaN,-3.396783818,-0.837113304,3.704,NaN,4.2
OIMB_Pier,43.3496333,-124.3299167,2014,2014-02-16,2.33,0.32,30.2,10.9,NaN,-1.685871829,-1.405424568,4.3132,NaN,NaN
OIMB_Pier,43.3496333,-124.3299167,2014,2014-02-17,2.25,0.38,30.5,10.9,NaN,-3.17789755,-0.991199458,4.6628,NaN,3.1
OIMB_Pier,43.3496333,-124.3299167,2014,2014-02-18,2.14,0.4,30.1,13.7,NaN,-2.325573508,-0.719568868,15.3248,NaN,2.4
OIMB_Pier,43.3496333,-124.3299167,2014,2014-02-19,2.34,0.34,30.1,7.9,NaN,0.106399094,-0.426352308,11.3072,NaN,2.1
OIMB_Pier,43.3496333,-124.3299167,2014,2014-02-20,2.35,0.13,29.5,8.6,NaN,-0.377579945,-0.141042998,3.7588,NaN,NaN
OIMB_Pier,43.3496333,-124.3299167,2014,2014-02-21,2.31,0.2,30.3,9.2,NaN,1.167491351,0.022786863,6.9748,NaN,NaN
OIMB_Pier,43.3496333,-124.3299167,2014,2014-02-22,2.34,0.0,31.7,8.8,NaN,2.779320871,0.068663946,2.2148,NaN,1.2
OIMB_Pier,43.3496333,-124.3299167,2014,2014-02-23,2.26,0.0,32.6,9.3,NaN,0.191076677,-0.042686888,1.622,NaN,2.0
OIMB_Pier,43.3496333,-124.3299167,2014,2014-02-24,2.28,0.02,31.4,10.3,NaN,-0.49409602,-0.02775426,1.208,NaN,2.7
OIMB_Pier,43.3496333,-124.3299167,2014,2014-02-25,2.35,0.0,30.8,10.8,NaN,-0.141336189,0.012574849,1.0688,NaN,2.0
OIMB_Pier,43.3496333,-124.3299167,2014,2014-02-26,2.55,0.05,31.0,10.4,NaN,-0.743620764,0.068059008,2.4776,NaN,1.9
OIMB_Pier,43.3496333,-124.3299167,2014,2014-02-27,2.54,0.25,30.9,10.6,NaN,-0.993608188,0.18719059,6.7024,NaN,1.8
OIMB_Pier,43.3496333,-124.3299167,2014,2014-02-28,2.6,0.05,30.9,10.6,NaN,0.083815065,0.204937948,2.2792,NaN,2.3
OIMB_Pier,43.3496333,-124.3299167,2014,2014-03-01,2.59,0.04,31.86,10.47,NaN,-0.330773252,-0.059458041,5.7644,NaN,3.1
OIMB_Pier,43.3496333,-124.3299167,2014,2014-03-02,2.52,0.2,31.1,11.2,NaN,-1.922316455,-0.537014462,2.4524,NaN,2.5
OIMB_Pier,43.3496333,-124.3299167,2014,2014-03-03,2.45,0.26,31.0,11.3,NaN,-2.277808784,-0.57267673,2.756,NaN,3.3
OIMB_Pier,43.3496333,-124.3299167,2014,2014-03-04,2.58,0.01,31.3,11.3,NaN,-0.774068514,-0.069274358,3.0196,NaN,2.4
OIMB_Pier,43.3496333,-124.3299167,2014,2014-03-05,2.55,0.7,31.2,12.1,NaN,-4.735159008,-0.271200938,3.5252,NaN,3.2
OIMB_Pier,43.3496333,-124.3299167,2014,2014-03-06,2.4,0.53,30.5,11.1,NaN,-3.377686001,-1.247151804,8.8452,NaN,2.4
OIMB_Pier,43.3496333,-124.3299167,2014,2014-03-07,2.27,0.16,31.2,10.0,NaN,-0.291239167,-0.017941616,3.6148,NaN,2.2
OIMB_Pier,43.3496333,-124.3299167,2014,2014-03-08,2.14,0.0,30.9,10.2,NaN,-2.112711088,0.073323564,2.4412,NaN,2.0
OIMB_Pier,43.3496333,-124.3299167,2014,2014-03-09,2.05,0.42,30.8,11.3,NaN,-3.050343083,-0.269197897,3.8464,NaN,2.5
OIMB_Pier,43.3496333,-124.3299167,2014,2014-03-10,2.01,0.19,30.5,11.3,NaN,0.399112352,-0.653212954,10.4528,NaN,2.1
OIMB_Pier,43.3496333,-124.3299167,2014,2014-03-11,2.04,0.02,30.5,11.2,NaN,2.083807626,0.115724017,2.3024,NaN,2.1
OIMB_Pier,43.3496333,-124.3299167,2014,2014-03-12,2.1,0.0,31.2,11.3,NaN,1.035358912,0.170040173,2.8164,NaN,1.6
OIMB_Pier,43.3496333,-124.3299167,2014,2014-03-13,2.16,0.0,31.0,11.5,NaN,1.967770305,-0.169043166,3.34,NaN,1.8
OIMB_Pier,43.3496333,-124.3299167,2014,2014-03-14,2.22,0.04,31.42,10.8,NaN,0.010364129,-0.204167447,2.202,NaN,0.8
OIMB_Pier,43.3496333,-124.3299167,2014,2014-03-15,2.15,0.0,30.72,11.1,NaN,-0.375062174,-0.030777732,2.7888,NaN,3.1
OIMB_Pier,43.3496333,-124.3299167,2014,2014-03-16,2.26,0.0,30.95,11.3,NaN,-1.224046987,-0.097918991,4.4144,NaN,9.5
OIMB_Pier,43.3496333,-124.3299167,2014,2014-03-17,2.31,0.37,29.68,11.3,NaN,1.922238876,-0.8134987,8.1844,NaN,5.0
OIMB_Pier,43.3496333,-124.3299167,2014,2014-03-18,2.37,0.0,31.2,10.9,NaN,2.785177369,0.032186644,2.896,NaN,3.2
OIMB_Pier,43.3496333,-124.3299167,2014,2014-03-19,2.41,0.0,32.3,10.6,NaN,2.401225507,-0.265844526,2.6096,NaN,2.1
OIMB_Pier,43.3496333,-124.3299167,2014,2014-03-20,2.42,0.0,31.4,10.5,NaN,3.076208511,0.032511962,7.0036,NaN,2.5
OIMB_Pier,43.3496333,-124.3299167,2015,2015-01-06,2.33628,0.0,30.1,12.36,NaN,-0.013157915,0.044267618,1.4984,NaN,4.713
OIMB_Pier,43.3496333,-124.3299167,2015,2015-01-07,2.29474,0.0,30.8,12.24,NaN,-0.002326905,0.03205605,2.006,NaN,4.679
OIMB_Pier,43.3496333,-124.3299167,2015,2015-01-08,2.21105,0.0,31.1,12.05,NaN,-0.067067958,0.041114845,1.8468,NaN,4.244
OIMB_Pier,43.3496333,-124.3299167,2015,2015-01-09,2.09356,0.0,31.0,11.86,NaN,-0.003184001,-0.065176244,2.3056,NaN,4.777
OIMB_Pier,43.3496333,-124.3299167,2015,2015-01-10,1.95092,0.0,30.7,12.32,NaN,0.641645157,-0.244652099,1.9276,NaN,4.806
OIMB_Pier,43.3496333,-124.3299167,2015,2015-01-11,1.7934,0.03,31.5,12.36,NaN,0.067073889,-0.017809433,1.4396,NaN,4.767
OIMB_Pier,43.3496333,-124.3299167,2015,2015-01-12,1.63401,0.1,31.2,12.39,NaN,-1.107291801,-0.13664547,1.5244,NaN,4.694
OIMB_Pier,43.3496333,-124.3299167,2015,2015-01-13,1.48954,0.13,30.7,12.1,NaN,0.676190793,0.119973643,1.3476,NaN,4.659
OIMB_Pier,43.3496333,-124.3299167,2015,2015-01-14,1.38172,0.0,31.9,12.07,NaN,-0.913924627,-0.081983762,1.9028,NaN,4.606
OIMB_Pier,43.3496333,-124.3299167,2015,2015-01-15,1.33706,0.0,31.7,11.37,NaN,-4.140325804,-0.028145905,3.1672,NaN,4.674
OIMB_Pier,43.3496333,-124.3299167,2015,2015-01-16,1.60002,0.53,30.8,12.27,NaN,-1.860312957,-0.505687684,4.131666667,NaN,4.498
OIMB_Pier,43.3496333,-124.3299167,2015,2015-01-17,1.9663,0.58,30.5,12.68,NaN,-2.768393789,-0.531369051,3.0112,NaN,4.552
OIMB_Pier,43.3496333,-124.3299167,2015,2015-01-18,2.30758,0.74,31.5,12.78,NaN,-2.200469965,-1.197613147,3.674583333,NaN,4.557
OIMB_Pier,43.3496333,-124.3299167,2015,2015-01-19,1.87026,0.78,30.4,12.7,NaN,0.151048911,-0.156865185,3.4368,NaN,4.635
OIMB_Pier,43.3496333,-124.3299167,2015,2015-01-20,2.58919,0.0,30.7,12.2,NaN,2.726607902,0.36008985,2.8584,NaN,4.596
OIMB_Pier,43.3496333,-124.3299167,2015,2015-01-21,2.78434,0.0,31.4,11.64,NaN,1.494550437,1.48597E-5,1.9552,NaN,4.508
OIMB_Pier,43.3496333,-124.3299167,2015,2015-01-22,2.87541,0.0,30.8,12.7,NaN,0.418794783,-0.112972688,1.65,NaN,4.63
OIMB_Pier,43.3496333,-124.3299167,2015,2015-01-23,2.85508,0.0,30.0,12.35,NaN,0.008564793,-0.106191503,2.6492,NaN,4.234
OIMB_Pier,43.3496333,-124.3299167,2015,2015-01-24,2.72794,0.0,30.0,12.0,NaN,0.359458198,-0.114394589,3.2368,NaN,4.786
OIMB_Pier,43.3496333,-124.3299167,2015,2015-01-25,2.51128,0.0,30.8,11.86,NaN,0.457299355,-0.053332324,2.7175,NaN,4.703
OIMB_Pier,43.3496333,-124.3299167,2015,2015-01-26,2.23508,0.0,30.0,12.36,NaN,-0.994824676,-0.296541486,2.52375,NaN,4.63
OIMB_Pier,43.3496333,-124.3299167,2015,2015-01-27,1.94079,0.0,29.5,12.49,NaN,-0.43081863,-0.15666481,2.1056,NaN,4.791
OIMB_Pier,43.3496333,-124.3299167,2015,2015-01-28,1.67899,0.0,30.7,12.53,NaN,-0.313103641,0.060031078,1.8368,NaN,4.874
OIMB_Pier,43.3496333,-124.3299167,2015,2015-01-29,1.56586,0.0,30.0,11.76,NaN,1.169904551,-0.235926201,1.8152,NaN,4.742
OIMB_Pier,43.3496333,-124.3299167,2015,2015-01-30,1.76449,0.0,31.0,12.46,NaN,2.646849798,-0.236327355,2.2184,NaN,4.835
OIMB_Pier,43.3496333,-124.3299167,2015,2015-01-31,1.94366,0.0,31.4,12.36,NaN,2.181642425,0.122608289,2.0832,NaN,4.645
OIMB_Pier,43.3496333,-124.3299167,2015,2015-02-01,2.07883,0.06,31.2,12.22,NaN,-0.321192335,-0.077747919,1.5288,NaN,4.659
OIMB_Pier,43.3496333,-124.3299167,2015,2015-02-02,1.5725,0.36,28.5,12.39,NaN,-1.261686556,-0.204356346,2.636,NaN,4.703
OIMB_Pier,43.3496333,-124.3299167,2015,2015-02-03,2.16583,1.45,28.5,12.49,NaN,-0.640380789,-0.381467978,2.8,NaN,4.767
OIMB_Pier,43.3496333,-124.3299167,2015,2015-02-04,2.20683,0.29,30.6,12.61,NaN,-1.6006654,-0.342982081,2.280833333,NaN,4.762
OIMB_Pier,43.3496333,-124.3299167,2015,2015-02-05,2.20357,0.21,32.0,13.06,NaN,-5.739465571,-0.329129831,4.5096,NaN,4.786
OIMB_Pier,43.3496333,-124.3299167,2015,2015-02-06,2.15658,1.19,30.2,13.06,NaN,-6.379448438,-0.879663459,5.610434783,NaN,4.801
OIMB_Pier,43.3496333,-124.3299167,2015,2015-02-07,2.06727,1.79,30.1,12.73,NaN,-3.815306123,-1.574635287,4.3164,NaN,4.708
OIMB_Pier,43.3496333,-124.3299167,2015,2015-02-08,1.94046,0.38,28.7,12.63,NaN,-2.835423371,-0.136060414,3.7392,NaN,4.718
OIMB_Pier,43.3496333,-124.3299167,2015,2015-02-09,1.78561,0.6,28.4,12.73,NaN,-4.940122465,-2.393294536,5.7408,NaN,4.62
OIMB_Pier,43.3496333,-124.3299167,2015,2015-02-10,1.61534,1.31,28.1,12.63,NaN,-0.27502737,-0.500120876,3.4225,NaN,4.625
OIMB_Pier,43.3496333,-124.3299167,2015,2015-02-11,1.44581,0.01,28.9,12.49,NaN,-0.012824742,-0.029137609,1.8752,NaN,4.542
OIMB_Pier,43.3496333,-124.3299167,2015,2015-02-12,1.29989,0.0,28.4,12.29,NaN,-0.20461665,0.029391697,2.6368,NaN,4.596
OIMB_Pier,43.3496333,-124.3299167,2015,2015-02-13,1.27548,0.0,28.5,12.29,NaN,0.144714034,-0.084622456,2.7468,NaN,4.737
OIMB_Pier,43.3496333,-124.3299167,2015,2015-02-14,1.59117,0.0,27.3,12.0,NaN,2.078230243,0.020811635,2.2536,NaN,4.669
OIMB_Pier,43.3496333,-124.3299167,2015,2015-02-15,1.95175,0.0,30.4,12.56,NaN,3.776408349,0.763949148,2.54,NaN,4.65
OIMB_Pier,43.3496333,-124.3299167,2015,2015-02-16,2.29842,0.01,32.0,12.2,NaN,0.7029916,0.111491932,1.446,NaN,4.474
OIMB_Pier,43.3496333,-124.3299167,2015,2015-02-17,2.58692,0.0,31.5,12.68,NaN,-0.906706351,-0.1918206,1.147083333,NaN,4.523
OIMB_Pier,43.3496333,-124.3299167,2015,2015-02-18,2.19552,0.0,31.5,12.8,NaN,-0.700840915,-0.441108023,1.5872,NaN,4.972
OIMB_Pier,43.3496333,-124.3299167,2015,2015-02-19,2.78268,0.0,31.4,12.92,NaN,2.27375402,0.003550927,1.6976,NaN,5.368
OIMB_Pier,43.3496333,-124.3299167,2015,2015-02-20,2.86267,0.0,33.5,12.68,NaN,2.86551484,0.233090999,1.6564,NaN,4.796
OIMB_Pier,43.3496333,-124.3299167,2015,2015-02-21,2.81732,0.0,31.6,12.44,NaN,3.661344749,0.184134569,2.018,NaN,4.659
OIMB_Pier,43.3496333,-124.3299167,2015,2015-02-22,2.65096,0.0,32.0,11.78,NaN,3.857313639,1.032639111,2.22,NaN,4.757
OIMB_Pier,43.3496333,-124.3299167,2015,2015-02-23,2.38432,0.0,33.4,11.47,NaN,2.653989014,0.579105933,1.9408,NaN,4.567
OIMB_Pier,43.3496333,-124.3299167,2015,2015-02-24,2.05214,0.0,33.5,11.42,NaN,1.434454744,0.080222748,1.656,NaN,4.586
OIMB_Pier,43.3496333,-124.3299167,2015,2015-02-25,1.7038,0.0,31.5,11.59,NaN,1.884415665,0.173016296,1.5804,NaN,4.757
OIMB_Pier,43.3496333,-124.3299167,2015,2015-02-26,1.42734,0.3,33.6,11.44,NaN,0.690321542,-0.067625118,1.2388,NaN,4.816
OIMB_Pier,43.3496333,-124.3299167,2015,2015-02-27,1.49643,0.45,32.0,11.39,NaN,0.416229964,-0.955753838,1.855416667,NaN,4.718
OIMB_Pier,43.3496333,-124.3299167,2015,2015-02-28,1.63438,0.53,32.0,11.83,NaN,1.731405556,0.021896667,2.8756,NaN,4.821
OIMB_Pier,43.3496333,-124.3299167,2015,2015-03-01,1.77983,0.0,32.0,11.69,NaN,3.116162383,0.272756161,2.5312,NaN,4.821
OIMB_Pier,43.3496333,-124.3299167,2015,2015-03-02,1.90396,0.18,32.0,11.37,NaN,2.072878117,-0.167669784,2.0912,NaN,4.615
OIMB_Pier,43.3496333,-124.3299167,2015,2015-03-03,1.99655,0.01,34.6,11.39,NaN,1.884961264,0.198941679,2.26,NaN,4.772
OIMB_Pier,43.3496333,-124.3299167,2015,2015-03-04,1.6631,0.0,32.0,11.47,NaN,3.0862199,0.226586354,1.8608,NaN,4.571
OIMB_Pier,43.3496333,-124.3299167,2015,2015-03-05,2.05273,0.0,31.5,11.22,NaN,1.007356491,0.107076311,1.5296,NaN,4.532
OIMB_Pier,43.3496333,-124.3299167,2015,2015-03-06,2.06772,0.0,31.4,11.49,NaN,0.021892257,-0.085316015,1.3616,NaN,5.109
OIMB_Pier,43.3496333,-124.3299167,2015,2015-03-07,2.03759,0.0,32.7,11.37,NaN,2.440614674,-0.197686461,1.5456,NaN,6.066
OIMB_Pier,43.3496333,-124.3299167,2015,2015-03-08,1.96215,0.0,33.0,11.61,NaN,1.887207317,-0.042553983,1.4776,NaN,5.944
OIMB_Pier,43.3496333,-124.3299167,2015,2015-03-09,1.84681,0.0,33.2,11.32,NaN,2.108956839,-0.321235096,1.51,NaN,6.759
OIMB_Pier,43.3496333,-124.3299167,2015,2015-03-10,1.70092,0.0,33.5,11.2,NaN,0.143450216,-0.03400738,1.554,NaN,7.448
OIMB_Pier,43.3496333,-124.3299167,2015,2015-03-11,1.53546,0.0,32.0,11.49,NaN,-3.011161319,-0.047203046,2.4104,NaN,6.818
OIMB_Pier,43.3496333,-124.3299167,2015,2015-03-12,1.36262,0.08,33.0,11.61,NaN,-0.911482371,-0.039136221,2.012,NaN,6.632
OIMB_Pier,43.3496333,-124.3299167,2015,2015-03-13,1.3004,0.0,34.2,11.71,NaN,-0.190754057,-0.188635121,1.628,NaN,5.582
OIMB_Pier,43.3496333,-124.3299167,2015,2015-03-14,1.42563,0.43,31.14,11.71,NaN,-2.317965235,-0.244158798,1.951666667,NaN,5.529
OIMB_Pier,43.3496333,-124.3299167,2015,2015-03-15,1.67193,1.05,29.0,11.88,NaN,-2.098886674,-0.229762643,2.221363636,NaN,5.832
OIMB_Pier,43.3496333,-124.3299167,2015,2015-03-16,1.97585,0.78,31.5,12.05,NaN,0.709195198,0.170301457,2.559583333,NaN,5.705
OIMB_Pier,43.3496333,-124.3299167,2015,2015-03-17,2.2745,0.0,31.14,12.15,NaN,-0.560569274,-0.264682906,1.3036,NaN,5.074
OIMB_Pier,43.3496333,-124.3299167,2015,2015-03-18,2.00985,0.02,32.5,12.7,NaN,0.643078297,-0.112835524,1.966,NaN,5.348
OIMB_Pier,43.3496333,-124.3299167,2015,2015-03-19,2.51843,0.0,32.0,12.36,NaN,0.748944351,-0.098211677,1.9472,NaN,4.821
OIMB_Pier,43.3496333,-124.3299167,2016,2016-01-04,2.08,NaN,30.1,10.2,10.75632,-0.902348765,0.159244715,2.8,0.408125,NaN
OIMB_Pier,43.3496333,-124.3299167,2016,2016-01-05,2.14,0.3,30.6,10.9,11.06544,-3.270530261,0.251434097,3.834,0.432625,NaN
OIMB_Pier,43.3496333,-124.3299167,2016,2016-01-06,2.22,0.1,30.1,10.9,11.06544,-4.167324133,-0.065774578,5.0675,0.479,NaN
OIMB_Pier,43.3496333,-124.3299167,2016,2016-01-07,2.3,0.05,27.5,11.5,11.3304,-1.992407174,-0.083956567,4.7284,0.47225,NaN
OIMB_Pier,43.3496333,-124.3299167,2016,2016-01-08,2.38,0.08,29.7,11.9,11.50704,-2.137710395,0.235771433,3.776,0.486875,NaN
OIMB_Pier,43.3496333,-124.3299167,2016,2016-01-09,2.44,0.26,29.0,11.8,11.46288,-2.648173714,0.182368315,2.9124,0.43046154,NaN
OIMB_Pier,43.3496333,-124.3299167,2016,2016-01-10,2.46,0.07,30.1,11.1,11.15376,-0.735112376,0.302150513,3.5276,0.43025,NaN
OIMB_Pier,43.3496333,-124.3299167,2016,2016-01-11,2.45,0.03,28.1,14.4,12.61104,-3.561112193,-0.11356962,3.6628,0.403375,NaN
OIMB_Pier,43.3496333,-124.3299167,2016,2016-01-12,2.38,1.0,29.7,11.2,11.19792,-4.219620249,-0.003797547,4.494,0.416125,NaN
OIMB_Pier,43.3496333,-124.3299167,2016,2016-01-13,2.26,1.46,29.4,11.7,11.41872,-3.0651633,-0.366447539,5.2876,0.39125,NaN
OIMB_Pier,43.3496333,-124.3299167,2016,2016-01-14,2.09,0.42,29.4,11.6,11.37456,-3.389873094,0.247021352,3.4444,0.397,NaN
OIMB_Pier,43.3496333,-124.3299167,2016,2016-01-15,1.9,0.54,28.6,12.6,11.81616,-1.692427548,-0.106843402,3.8044,0.360625,NaN
OIMB_Pier,43.3496333,-124.3299167,2016,2016-01-16,1.73,0.46,29.0,12.9,11.94864,-4.387269962,-0.780087409,4.5524,0.3095,NaN
OIMB_Pier,43.3496333,-124.3299167,2016,2016-01-17,1.62,0.675,27.8,13.2,12.08112,-2.744635492,-0.335736438,5.286,0.2695,NaN
OIMB_Pier,43.3496333,-124.3299167,2016,2016-01-18,1.62,0.77,28.6,12.1,11.59536,-2.421085603,-0.397199859,4.8424,0.2765,NaN
OIMB_Pier,43.3496333,-124.3299167,2016,2016-01-19,2.36,1.38,27.3,13.7,12.30192,-1.907617467,-0.595657372,4.455416667,0.300125,NaN
OIMB_Pier,43.3496333,-124.3299167,2016,2016-01-20,2.41,0.6,27.7,12.3,11.68368,-1.919752094,-0.643844728,3.6952,0.234625,NaN
OIMB_Pier,43.3496333,-124.3299167,2016,2016-01-21,2.44,0.62,28.1,11.3,11.24208,-5.201504212,-0.178983516,4.212,0.21914,NaN
OIMB_Pier,43.3496333,-124.3299167,2016,2016-01-22,2.46,1.61,29.0,11.0,11.1096,-2.568719229,-0.666573737,5.014,0.2417333,NaN
OIMB_Pier,43.3496333,-124.3299167,2016,2016-01-23,2.45,0.53,30.0,11.0,11.1096,-1.041386739,-0.733509724,3.618,0.2604667,NaN
OIMB_Pier,43.3496333,-124.3299167,2016,2016-01-24,2.04,0.25,27.5,13.0,11.9928,-1.882145558,-0.080754261,2.9896,0.235154,NaN
OIMB_Pier,43.3496333,-124.3299167,2016,2016-01-25,2.07,0.15,33.0,10.8,11.02128,-2.353737337,0.125297907,2.734,0.26925,NaN
OIMB_Pier,43.3496333,-124.3299167,2016,2016-01-26,2.08,0.05,33.0,10.8,11.02128,-2.193419567,0.12420612,2.4608,0.33125,NaN
OIMB_Pier,43.3496333,-124.3299167,2016,2016-01-27,2.07,0.0,32.0,11.0,11.1096,-2.34346555,-0.071173521,3.7596,0.36954545,NaN
OIMB_Pier,43.3496333,-124.3299167,2016,2016-01-28,2.05,1.25,28.7,11.3,11.24208,-2.994634257,-0.191611985,4.5656,0.3685,NaN
OIMB_Pier,43.3496333,-124.3299167,2016,2016-01-29,2.03,0.63,30.0,11.1,11.15376,-1.511128994,-1.03165997,5.5092,0.39646154,NaN
OIMB_Pier,43.3496333,-124.3299167,2016,2016-01-30,2.01,0.43,34.0,10.8,11.02128,-0.055863225,-0.804854329,4.0816,0.5338181,NaN
OIMB_Pier,43.3496333,-124.3299167,2016,2016-01-31,1.99,0.12,32.0,10.5,10.8888,0.574845582,-0.099662026,3.1136,0.4056,NaN
OIMB_Pier,43.3496333,-124.3299167,2016,2016-02-01,1.99,0.21,33.0,9.4,10.40304,0.895729365,-0.283582592,2.9436,0.61957143,NaN
OIMB_Pier,43.3496333,-124.3299167,2016,2016-02-02,2.01,0.06,33.0,9.5,10.4472,-1.407704686,-0.096849988,2.3264,0.49464,NaN
OIMB_Pier,43.3496333,-124.3299167,2016,2016-02-03,2.06,0.14,33.0,10.1,10.71216,-3.318481187,-0.051624352,3.0504,0.645714,NaN
OIMB_Pier,43.3496333,-124.3299167,2016,2016-02-04,2.13,0.48,33.5,10.6,10.93296,-1.537749557,-0.56841618,4.7916,0.612,NaN
OIMB_Pier,43.3496333,-124.3299167,2016,2016-02-05,2.23,0.05,34.0,10.6,10.93296,-2.514967797,-0.092909921,4.0968,0.528857,NaN
OIMB_Pier,43.3496333,-124.3299167,2016,2016-02-06,2.33,0.25,34.0,10.5,10.8888,-0.675898154,0.106617659,3.812,0.583857,NaN
OIMB_Pier,43.3496333,-124.3299167,2016,2016-02-07,2.41,0.05,33.0,10.7,10.97712,-0.269056477,-6.59356E-4,2.28,0.486285,NaN
OIMB_Pier,43.3496333,-124.3299167,2016,2016-02-08,2.46,0.02,34.0,10.8,11.02128,0.347000673,-0.037287286,2.0964,0.58957,NaN
OIMB_Pier,43.3496333,-124.3299167,2016,2016-02-09,2.46,0.0,34.0,10.8,11.02128,-0.43664328,0.101564299,2.524,0.562285,NaN
OIMB_Pier,43.3496333,-124.3299167,2016,2016-02-10,2.39,0.01,34.0,11.3,11.24208,-1.362260551,-0.253824769,2.0092,0.706857,NaN
OIMB_Pier,43.3496333,-124.3299167,2016,2016-02-11,2.26,0.05,33.9,12.4,11.72784,-0.193550356,-0.009383172,2.6208,0.6961428,NaN
OIMB_Pier,43.3496333,-124.3299167,2016,2016-02-12,2.09,0.46,34.0,11.7,11.41872,-1.434811199,-0.156271831,3.9608,0.722857,NaN
OIMB_Pier,43.3496333,-124.3299167,2016,2016-02-13,1.9,0.01,33.5,10.0,10.668,-0.395482232,-0.1310716,3.8452,0.796857,NaN
OIMB_Pier,43.3496333,-124.3299167,2016,2016-02-14,1.72,0.31,35.0,11.6,11.37456,-2.248880719,-0.242620521,3.324,0.95785,NaN
OIMB_Pier,43.3496333,-124.3299167,2016,2016-02-15,1.62,0.11,34.0,11.3,11.24208,-0.255610633,-0.247960483,2.5264,0.99417,NaN
OIMB_Pier,43.3496333,-124.3299167,2016,2016-02-16,2.23,0.03,34.0,10.6,10.93296,-0.098363603,-0.024499094,2.256,0.7584,NaN
OIMB_Pier,43.3496333,-124.3299167,2016,2016-02-17,2.21,0.01,34.5,11.9,11.50704,-1.190362465,-0.319324271,2.9856,0.66775,NaN
OIMB_Pier,43.3496333,-124.3299167,2016,2016-02-18,2.22,0.5,31.4,11.3,11.24208,-3.163578003,-1.983109417,4.1184,0.637,NaN
OIMB_Pier,43.3496333,-124.3299167,2016,2016-02-19,2.25,1.41,31.6,11.2,11.19792,-3.814583585,-1.480288421,5.2496,0.7115,NaN
OIMB_Pier,43.3496333,-124.3299167,2016,2016-02-20,2.27,0.31,31.4,10.8,11.02128,-0.217812695,-0.398972749,4.0492,0.74171,NaN
OIMB_Pier,43.3496333,-124.3299167,2016,2016-02-21,2.27,0.04,31.4,11.3,11.24208,-1.791106805,-0.139570155,3.144,0.45643,NaN